DW3371 Weather Reports


Display with metric or nautical units.
time (UTC)temp
F
wind
direction
speed
MPH
gust
MPH
rain 1hr
in
rain 24hr
in
rain mn
in
humidity
%
barometer
mb
20260901112654 69 279 7.0 13.0 0.00 0.00 0.00 54 1017.5
20260901105654 67 224 7.0 14.0 0.00 0.00 0.00 57 1017.6
20260901102658 67 252 7.0 15.0 0.00 0.00 0.00 59 1017.8
20260901095653 66 236 5.0 12.0 0.00 0.00 0.00 64 1017.9
20260901085652 63 254 5.0 11.0 0.00 0.00 0.00 72 1018.2
20260901082652 61 292 5.0 10.0 0.00 0.00 0.00 77 1018.0
20260901075652 60 274 6.0 10.0 0.00 0.00 0.00 79 1017.9
20260901072657 58 264 4.0 9.0 0.00 0.00 0.00 82 1017.9
20260901065650 57 263 4.0 9.0 0.00 0.00 0.00 83 1017.7
20260901062650 56 0 3.0 7.0 0.00 0.00 0.00 85 1017.6
20260901052647 54 261 4.0 7.0 0.00 0.00 0.00 86 1017.3
20260901045650 54 248 4.0 7.0 0.00 0.00 0.00 85 1017.1
20260901042647 54 0 2.0 7.0 0.00 0.00 0.00 85 1016.9
20260901035644 55 259 4.0 8.0 0.00 0.00 0.00 84 1016.7
20260901032644 56 0 3.0 8.0 0.00 0.00 0.00 83 1016.7
20260901025644 56 0 3.0 7.0 0.00 0.00 0.00 82 1016.7
20260901022643 56 260 3.0 8.0 0.00 0.00 0.00 82 1016.8
20260901015643 56 249 3.0 7.0 0.00 0.00 0.00 81 1016.8
20260901012642 57 0 3.0 6.0 0.00 0.00 0.00 80 1016.8
20260901005644 58 257 3.0 8.0 0.00 0.00 0.00 79 1016.5
20260831232639 59 288 3.0 7.0 0.00 0.00 0.00 78 1016.1
20260831222639 62 299 4.0 9.0 0.00 0.00 0.00 74 1016.0
20260831215639 62 280 4.0 9.0 0.00 0.00 0.00 73 1015.7
20260831212638 63 294 6.0 12.0 0.00 0.00 0.00 71 1015.6
20260831202636 63 0 4.0 11.0 0.00 0.00 0.00 73 1015.0
20260831192633 65 0 7.0 15.0 0.00 0.00 0.00 70 1014.3
20260831185633 67 292 8.0 15.0 0.00 0.00 0.00 68 1013.7
20260831182633 68 301 7.0 14.0 0.00 0.00 0.00 65 1013.0
20260831175638 70 283 8.0 17.0 0.00 0.00 0.00 62 1012.6
20260831172630 71 0 11.0 21.0 0.00 0.00 0.00 59 1012.2
20260831165625 72 304 10.0 17.0 0.00 0.00 0.00 58 1011.7
20260831162633 73 0 12.0 21.0 0.00 0.00 0.00 57 1011.4
20260831155625 74 0 10.0 24.0 0.00 0.00 0.00 57 1010.9
20260831152634 73 0 11.0 27.0 0.00 0.00 0.00 57 1010.7
20260831142623 73 0 9.0 21.0 0.00 0.00 0.00 64 1010.0
20260831135628 71 282 10.0 18.0 0.00 0.00 0.00 68 1010.0
20260831132620 72 0 10.0 21.0 0.00 0.00 0.00 64 1009.5
20260831125618 71 280 12.0 20.0 0.00 0.00 0.00 62 1009.0
20260831122618 71 262 9.0 21.0 0.00 0.00 0.00 64 1008.6
20260831115620 70 312 11.0 19.0 0.00 0.00 0.00 65 1008.0